Weather History for KHJO - September, 2014

Change the Weather History Date:

Monday, September 1, 2014

  Actual Average Record
Temperature  
Mean Temperature 79 °F 76 °F  
Max Temperature 98 °F 94 °F 104 °F (1938)
Min Temperature 60 °F 59 °F 53 °F (2010)
Degree Days  
Heating Degree Days 0    
Month to date heating degree days 0  
Since 1 July heating degree days 0  
Cooling Degree Days 14    
Month to date cooling degree days 14  
Year to date cooling degree days 1771  
Growing Degree Days 28 (Base 50)    
Moisture  
Dew Point 49 °F    
Average Humidity 47    
Maximum Humidity 78    
Minimum Humidity 16    
Precipitation  
Precipitation 0.00 in 0.00 in 0.04 in (2000)
Month to date precipitation 0.00 0.00  
Year to date precipitation 2.43 6.80  
Since 1 July precipitation T  
Snow  
Snow 0.00 in - - ()
Month to date snowfall 0.0  
Since 1 July snowfall 0.0  
Since 1 September snowfall 0.0  
Snow Depth 0.00 in    
Sea Level Pressure  
Sea Level Pressure 29.78 in    
Wind  
Wind Speed 4 mph (NW)    
Max Wind Speed 12 mph    
Max Gust Speed 14 mph    
Visibility 10 miles    
Events      
T = Trace of Precipitation, MM = Missing Value Source: NWS Daily Summary

Daily Weather History Graph

Daily Weather History Graph

Search for Another Location

Airport or City:

Trip Planner

Search our weather history database for the weather conditions in past years. The results will help you decide how hot, cold, wet, or windy it might be!

Date:

Astronomy

Sep. 01, 2014 Rise Set
Actual Time 6:30 AM PDT 7:26 PM PDT
Civil Twilight 6:03 AM PDT 7:52 PM PDT
Nautical Twilight 5:32 AM PDT 8:23 PM PDT
Astronomical Twilight 5:00 AM PDT 8:55 PM PDT
Moon 1:08 PM PDT (9/1) 11:43 PM PDT (9/1)
Length of Visible Light 13h 48m
Length of Day
12h 56m
Waxing Crescent, 43% of the Moon is Illuminated
Sep 1
Waxing Crescent
Sep 2
First Quarter
Sep 8
Full
Sep 15
Last Quarter
Sep 23
New

Hourly Weather History & Observations

Time (PDT) Temp. Dew Point Humidity Pressure Visibility Wind Dir Wind Speed Gust Speed Precip Events Conditions
12:53 AM 75.0 °F 54.0 °F 48% 29.80 in 10.0 mi WNW 4.6 mph - N/A   Clear
1:53 AM 73.0 °F 52.0 °F 48% 29.80 in 10.0 mi NNW 5.8 mph - N/A   Clear
2:53 AM 68.0 °F 54.0 °F 61% 29.80 in 10.0 mi NE 3.5 mph - N/A   Clear
3:53 AM 64.0 °F 52.0 °F 65% 29.80 in 10.0 mi Calm Calm - N/A   Clear
4:53 AM 63.0 °F 54.0 °F 72% 29.80 in 10.0 mi SW 3.5 mph - N/A   Clear
5:53 AM 60.1 °F 53.1 °F 78% 29.81 in 10.0 mi South 5.8 mph - N/A   Clear
6:53 AM 61.0 °F 54.0 °F 78% 29.82 in 8.0 mi Calm Calm - N/A   Clear
8:53 AM 79.0 °F 48.0 °F 34% 29.83 in 8.0 mi NW 3.5 mph - N/A   Clear
9:53 AM 82.9 °F 48.0 °F 29% 29.83 in 10.0 mi WNW 6.9 mph - N/A   Clear
10:53 AM 84.9 °F 44.1 °F 24% 29.83 in 10.0 mi WNW 6.9 mph - N/A   Clear
11:53 AM 88.0 °F 44.1 °F 22% 29.82 in 10.0 mi North - - N/A   Clear
12:53 PM 91.0 °F 46.9 °F 22% 29.80 in 10.0 mi Calm Calm - N/A   Clear
1:53 PM 95.0 °F 46.9 °F 19% 29.78 in 10.0 mi NNW 9.2 mph - N/A   Clear
2:53 PM 96.1 °F 45.0 °F 17% 29.75 in 10.0 mi Variable 5.8 mph - N/A   Clear
3:53 PM 96.1 °F 46.0 °F 18% 29.73 in 10.0 mi Variable 4.6 mph - N/A   Clear
4:53 PM 97.0 °F 42.1 °F 15% 29.72 in 10.0 mi West 9.2 mph - N/A   Clear
5:53 PM 97.0 °F 46.0 °F 18% 29.71 in 10.0 mi North 4.6 mph - N/A   Clear
6:53 PM 95.0 °F 45.0 °F 18% 29.71 in 10.0 mi NW 6.9 mph - N/A   Clear
7:53 PM 89.1 °F 48.0 °F 24% 29.72 in 10.0 mi NW 4.6 mph - N/A   Clear
8:53 PM 84.9 °F 51.1 °F 31% 29.73 in 10.0 mi WNW 3.5 mph - N/A   Clear
9:53 PM 79.0 °F 54.0 °F 42% 29.75 in 10.0 mi WNW 3.5 mph - N/A   Clear
10:53 PM 78.1 °F 53.1 °F 42% 29.75 in 10.0 mi NW 3.5 mph - N/A   Clear
11:53 PM 73.9 °F 54.0 °F 50% 29.76 in 10.0 mi Calm Calm - N/A   Clear